[[{"header":{"parameterUnit":"m.s-1","parameterCategory":1,"la1":30.2992,"la2":30.254,"lo1":-89.0895,"lo2":-89.0443,"dy":0.0025,"dx":0.0025,"nx":19,"ny":19,"refTime":"2026-05-11T09:00:00:Z","depth":0,"parameterNumber":2,"parameterNumberName":"U-component_of_WINDS"},"data":[0,0,0,-2.4766,-2.4767,-2.4803,-2.4803,-2.4902,-2.4903,0,0,0,0,0,0,0,0,0,0,0,-2.4781,-2.4783,-2.4765,-2.4767,-2.4803,-2.4803,-2.4902,-2.4903,0,0,0,0,0,0,0,0,0,0,0,-2.478,-2.4782,-2.4784,-2.4767,-2.4803,-2.4803,-2.4902,-2.4857,0,0,0,0,0,0,0,0,0,0,-2.4813,-2.4852,-2.4782,-2.4784,-2.4768,-2.4803,-2.4803,-2.4854,-2.486,-2.4906,0,-2.495,0,-2.4928,-2.4913,-2.4913,0,0,0,-2.4749,-2.4847,-2.4832,-2.4784,-2.4768,-2.4803,-2.4782,-2.4857,-2.4863,-2.4914,-2.4951,-2.4953,-2.493,-2.4914,-2.4914,-2.5231,-2.5233,0,0,-2.4747,-2.4803,-2.4828,-2.4838,-2.4829,-2.4781,-2.4783,-2.486,-2.4906,-2.4951,-2.4954,-2.4931,-2.4915,-2.4916,-2.5228,-2.5231,0,0,0,-2.4754,-2.4803,-2.4785,-2.4835,-2.4837,-2.4782,-2.4785,-2.4902,-2.4891,-2.4955,-2.4932,-2.4915,-2.4917,-2.5226,-2.5229,-2.5399,0,0,0,-2.4751,-2.4806,-2.4785,-2.482,-2.4837,-2.4869,-2.4827,-2.4886,-2.4893,-2.4932,-2.4916,-2.4919,-2.5223,-2.5228,-2.5389,-2.5472,0,0,0,-2.477,-2.4808,-2.4821,-2.4823,-2.484,-2.4866,-2.4859,-2.4886,-2.488,-2.4913,-2.4919,-2.5221,-2.5227,-2.5379,-2.5457,-2.5574,0,0,0,-2.4808,-2.4973,-2.4825,-2.5002,-2.484,-2.4968,-2.4858,-2.4952,-2.5001,-2.4916,-2.5223,-2.5229,-2.5376,-2.5447,-2.5564,-2.5685,-2.5739,0,0,-2.5049,-2.5005,-2.5104,-2.4972,-2.5141,-2.4958,-2.5153,-2.5147,-2.5101,-2.5192,-2.5199,-2.5392,-2.5455,-2.5572,-2.6015,-2.6059,0,0,0,-2.52,-2.5273,-2.5305,-2.5351,-2.5346,-2.5351,-2.5308,-2.5305,-2.5378,-2.5157,-2.5462,-2.5498,-2.5564,-2.562,-2.5657,-2.5712,-2.5256,-2.5255,-2.5254,-2.5626,-2.5554,-2.5715,-2.5647,-2.5694,-2.5646,-2.5679,-2.5669,-2.5585,-2.5659,-2.5687,-2.5964,-2.6031,-2.6058,-2.6116,-2.5741,-2.5741,-2.5742,-2.5742,-2.5977,-2.607,-2.595,-2.6064,-2.5989,-2.6085,-2.6046,-2.5984,-2.6066,-2.5937,-2.5992,-2.5861,-2.6108,-2.6155,-2.5754,-2.5752,-2.5751,-2.575,-2.5749,-2.6252,-2.6284,-2.6274,-2.6333,-2.6388,-2.6314,-2.6398,-2.6326,-2.626,-2.6313,-2.6338,-2.6335,-2.6327,-2.6328,-2.633,-2.633,-2.6331,-2.6332,-2.6333,-2.6543,-2.6526,-2.6603,-2.661,-2.663,-2.6649,-2.6601,-2.6621,-2.6626,-2.6568,-2.6567,-2.6481,-2.6142,-2.6062,-2.6347,-2.6345,-2.6343,-2.6341,-2.634,-2.6934,-2.6833,-2.6952,-2.6972,-2.6976,-2.7037,-2.6941,-2.6988,-2.6994,-2.7039,-2.6937,-2.6697,-2.665,-2.662,-2.6553,-2.6949,-2.6949,-2.6949,-2.6949,-2.717,-2.7135,-2.7241,-2.7278,-2.7306,-2.7231,-2.7374,-2.7339,-2.7289,-2.729,-2.722,-2.7124,-2.7096,-2.7065,-2.7026,-2.6963,-2.7453,-2.7454,-2.7454,-2.7408,-2.7373,-2.7506,-2.7449,-2.7446,-2.7448,-2.758,-2.7633,-2.7554,-2.7473,-2.729,-2.7268,-2.7111,-2.7063,-2.6985,-2.6925,-2.6807,0,0]},{"header":{"parameterUnit":"m.s-1","parameterCategory":1,"la1":30.2992,"la2":30.254,"lo1":-89.0895,"lo2":-89.0443,"dy":0.0025,"dx":0.0025,"nx":19,"ny":19,"refTime":"2026-05-11T09:00:00:Z","depth":0,"parameterNumber":3,"parameterNumberName":"V-component_of_WINDS"},"data":[0,0,0,-3.6079,-3.6078,-3.5974,-3.5974,-3.5863,-3.5862,0,0,0,0,0,0,0,0,0,0,0,-3.6127,-3.6127,-3.6079,-3.6077,-3.5974,-3.5974,-3.5863,-3.5862,0,0,0,0,0,0,0,0,0,0,0,-3.6127,-3.6127,-3.6127,-3.6077,-3.5974,-3.5974,-3.5863,-3.5933,0,0,0,0,0,0,0,0,0,0,-3.6029,-3.6091,-3.6127,-3.6127,-3.6077,-3.5975,-3.5973,-3.5935,-3.5928,-3.5921,0,-3.5922,0,-3.5891,-3.5857,-3.5856,0,0,0,-3.6063,-3.6097,-3.6054,-3.6127,-3.6076,-3.5975,-3.6017,-3.5931,-3.5923,-3.5911,-3.592,-3.5915,-3.5889,-3.5856,-3.5856,-3.5868,-3.5869,0,0,-3.6069,-3.6117,-3.606,-3.605,-3.6072,-3.602,-3.6014,-3.5926,-3.5937,-3.592,-3.5912,-3.5887,-3.5856,-3.5855,-3.5868,-3.5868,0,0,0,-3.6095,-3.6122,-3.608,-3.6055,-3.6035,-3.6018,-3.601,-3.5941,-3.5924,-3.5911,-3.5886,-3.5855,-3.5854,-3.5867,-3.5868,-3.5951,0,0,0,-3.6098,-3.6137,-3.6083,-3.6112,-3.6038,-3.5988,-3.6028,-3.593,-3.5918,-3.5887,-3.5855,-3.5853,-3.5866,-3.5867,-3.5947,-3.5982,0,0,0,-3.6128,-3.614,-3.6132,-3.6114,-3.6072,-3.5988,-3.5965,-3.5926,-3.5904,-3.5856,-3.5853,-3.5865,-3.5867,-3.5944,-3.5976,-3.5999,0,0,0,-3.6173,-3.6206,-3.6134,-3.616,-3.6074,-3.6043,-3.5965,-3.5939,-3.5908,-3.5855,-3.5866,-3.5868,-3.5943,-3.5972,-3.5995,-3.6026,-3.6044,0,0,-3.6241,-3.6216,-3.6227,-3.616,-3.6155,-3.6054,-3.6059,-3.5983,-3.5932,-3.5891,-3.5891,-3.5949,-3.5975,-3.5998,-3.6131,-3.6146,0,0,0,-3.6265,-3.6274,-3.6262,-3.6237,-3.6183,-3.6137,-3.6057,-3.6028,-3.5992,-3.5923,-3.5962,-3.5977,-3.5988,-3.6,-3.6013,-3.6018,-3.5876,-3.5876,-3.5876,-3.6428,-3.6365,-3.6379,-3.6303,-3.628,-3.6197,-3.617,-3.6117,-3.6058,-3.6068,-3.6055,-3.6144,-3.6161,-3.617,-3.6176,-3.6067,-3.6068,-3.6068,-3.6068,-3.652,-3.6521,-3.6445,-3.6431,-3.6363,-3.6348,-3.6269,-3.6228,-3.6202,-3.6149,-3.6155,-3.6101,-3.6188,-3.619,-3.6074,-3.6073,-3.6072,-3.6072,-3.6071,-3.6618,-3.6608,-3.6576,-3.6533,-3.6507,-3.6427,-3.6408,-3.6345,-3.6285,-3.6292,-3.627,-3.6268,-3.6257,-3.6287,-3.6287,-3.6287,-3.6287,-3.6288,-3.6288,-3.6732,-3.6693,-3.6686,-3.6633,-3.6608,-3.6568,-3.6485,-3.6457,-3.6411,-3.6366,-3.6365,-3.6304,-3.621,-3.6187,-3.6292,-3.6292,-3.6291,-3.6291,-3.629,-3.6845,-3.681,-3.68,-3.6776,-3.6707,-3.6684,-3.6605,-3.6555,-3.6523,-3.6515,-3.6452,-3.6394,-3.6362,-3.6351,-3.6331,-3.6468,-3.6468,-3.6468,-3.6468,-3.6927,-3.6907,-3.6882,-3.6847,-3.6806,-3.6735,-3.672,-3.6656,-3.6583,-3.6558,-3.6529,-3.6498,-3.6491,-3.6463,-3.645,-3.643,-3.6589,-3.6589,-3.6589,-3.6992,-3.6965,-3.6967,-3.69,-3.6841,-3.6791,-3.6775,-3.6735,-3.6644,-3.6592,-3.6537,-3.6532,-3.6481,-3.6468,-3.6414,-3.6395,-3.6358,0,0]}]]